CW9873 Weather Reports


Display with metric or nautical units.
time (UTC)temp
F
wind
direction
speed
MPH
gust
MPH
rain 1hr
in
rain 24hr
in
rain mn
in
humidity
%
barometer
mb
20260503013352 49 182 0.0 0.0 0.00 0.00 0.00 88 1010.0
20260503012852 49 182 0.0 0.0 0.00 0.00 0.00 88 1010.0
20260503012351 49 182 0.0 0.0 0.00 0.00 0.00 88 1010.1
20260503011853 49 182 0.0 0.0 0.00 0.00 0.00 88 1010.1
20260503011349 49 183 0.0 0.0 0.00 0.00 0.00 88 1010.0
20260503011107 49 183 0.0 0.0 0.00 0.00 0.00 88 1010.1
20260503010347 49 183 0.0 0.0 0.00 0.00 0.00 88 1009.9
20260503005345 49 183 0.0 0.0 0.00 0.00 0.00 87 1009.9
20260503004839 49 183 0.0 0.0 0.00 0.00 0.00 87 1009.7
20260503004334 49 183 0.0 0.0 0.00 0.00 0.00 87 1009.7
20260503003831 49 183 0.0 0.0 0.00 0.00 0.00 87 1009.7
20260503003558 49 183 0.0 0.0 0.00 0.00 0.00 87 1009.6
20260503003051 50 183 0.0 0.0 0.00 0.00 0.00 87 1009.7
20260503002330 50 184 0.0 0.0 0.00 0.00 0.00 86 1009.6
20260503001829 50 184 0.0 0.0 0.00 0.00 0.00 86 1009.7
20260503001329 50 219 0.0 0.0 0.00 0.00 0.00 86 1009.7
20260503000830 50 219 0.0 0.0 0.00 0.00 0.00 86 1009.6
20260503000328 50 219 0.0 0.0 0.00 0.00 0.00 86 1009.6
20260502235827 50 219 0.0 0.0 0.00 0.00 0.00 86 1009.7
20260502235328 50 219 0.0 0.0 0.00 0.00 0.00 86 1009.7
20260502234829 50 219 0.0 0.0 0.00 0.00 0.00 86 1009.7
20260502234327 50 219 0.0 0.0 0.00 0.00 0.00 86 1009.7
20260502233824 50 219 0.0 0.0 0.00 0.00 0.00 86 1009.8
20260502233323 50 219 0.0 0.0 0.00 0.00 0.00 86 1009.8
20260502232826 50 219 0.0 0.0 0.00 0.00 0.00 86 1009.7
20260502232335 50 219 0.0 0.0 0.00 0.00 0.00 85 1009.7
20260502231824 50 219 0.0 0.0 0.00 0.00 0.00 85 1009.8
20260502231327 50 219 0.0 0.0 0.00 0.00 0.00 85 1009.8
20260502231050 50 219 0.0 0.0 0.00 0.00 0.00 85 1009.7
20260502230550 50 218 0.0 1.0 0.00 0.00 0.00 85 1009.8
20260502225813 50 218 0.0 2.0 0.00 0.00 0.00 85 1009.8
20260502224812 50 217 0.0 1.0 0.00 0.00 0.00 85 1009.9
20260502224314 51 217 0.0 1.0 0.00 0.00 0.00 85 1009.8
20260502223811 51 209 0.0 1.0 0.00 0.00 0.00 85 1009.8
20260502223311 51 225 0.0 2.0 0.00 0.00 0.00 85 1009.8
20260502223045 51 226 0.0 2.0 0.00 0.00 0.00 85 1009.7
20260502222545 51 209 0.0 0.0 0.00 0.00 0.00 85 1009.7
20260502221808 51 209 0.0 0.0 0.00 0.00 0.00 85 1009.6
20260502221306 51 203 0.0 1.0 0.00 0.00 0.00 85 1009.7
20260502220803 51 197 0.0 2.0 0.00 0.00 0.00 85 1009.7
20260502220303 51 203 0.0 2.0 0.00 0.00 0.00 85 1009.7
20260502215807 51 194 1.0 4.0 0.00 0.00 0.00 85 1009.7
20260502215305 51 205 1.0 4.0 0.00 0.00 0.00 84 1009.7
20260502214802 51 236 1.0 3.0 0.00 0.00 0.00 84 1009.8
20260502214537 51 244 1.0 3.0 0.00 0.00 0.00 84 1009.6
20260502213804 51 217 1.0 3.0 0.00 0.00 0.00 84 1009.6
20260502213534 51 132 0.0 2.0 0.00 0.00 0.00 84 1009.5
20260502212803 51 119 0.0 2.0 0.00 0.00 0.00 84 1009.4
20260502212541 51 95 0.0 2.0 0.00 0.00 0.00 84 1009.5
20260502211805 51 125 0.0 2.0 0.00 0.00 0.00 84 1009.6
20260502211536 51 220 0.0 2.0 0.00 0.00 0.00 84 1009.6
20260502210802 51 133 0.0 2.0 0.00 0.00 0.00 84 1009.5
20260502210301 51 214 0.0 1.0 0.00 0.00 0.00 84 1009.5
20260502205804 51 198 0.0 2.0 0.00 0.00 0.00 84 1009.6
20260502205302 51 211 1.0 3.0 0.00 0.00 0.00 84 1009.7
20260502204801 51 209 1.0 3.0 0.00 0.00 0.00 84 1009.8
20260502204538 51 162 0.0 3.0 0.00 0.00 0.00 84 1009.8
20260502203802 51 152 0.0 2.0 0.00 0.00 0.00 85 1009.8
20260502203532 51 109 1.0 2.0 0.00 0.00 0.00 84 1009.9
20260502202756 51 192 1.0 3.0 0.00 0.00 0.00 84 1009.8
20260502201755 51 177 0.0 4.0 0.00 0.00 0.00 84 1009.9
20260502201256 51 201 0.0 3.0 0.00 0.00 0.00 84 1010.0
20260502200755 51 223 1.0 4.0 0.00 0.00 0.00 84 1010.0
20260502200256 51 221 0.0 4.0 0.00 0.00 0.00 84 1010.1
20260502195756 51 46 0.0 2.0 0.00 0.00 0.00 84 1010.1
20260502195255 51 106 1.0 2.0 0.00 0.00 0.00 85 1010.1
20260502194755 51 209 1.0 4.0 0.00 0.00 0.00 85 1010.1
20260502194251 51 184 1.0 4.0 0.00 0.00 0.00 84 1010.2
20260502193751 51 148 1.0 4.0 0.00 0.00 0.00 85 1010.2
20260502193252 51 152 1.0 4.0 0.00 0.00 0.00 85 1010.4
20260502192753 51 166 1.0 4.0 0.00 0.00 0.00 85 1010.3
20260502192251 51 105 1.0 5.0 0.00 0.00 0.00 84 1010.3
20260502192020 51 246 2.0 5.0 0.00 0.00 0.00 84 1010.4
20260502191249 51 194 2.0 5.0 0.00 0.00 0.00 84 1010.6
20260502191026 51 202 2.0 6.0 0.00 0.00 0.00 84 1010.7
20260502190525 51 124 1.0 6.0 0.00 0.00 0.00 84 1010.6
20260502185748 51 200 1.0 5.0 0.00 0.00 0.00 83 1010.8
20260502185243 52 184 2.0 8.0 0.00 0.00 0.00 83 1010.9
20260502184740 52 201 2.0 8.0 0.00 0.00 0.00 82 1010.9
20260502184233 52 204 2.0 7.0 0.00 0.00 0.00 82 1011.0
20260502183732 52 148 2.0 7.0 0.00 0.00 0.00 82 1011.0
20260502183233 52 146 2.0 7.0 0.00 0.00 0.00 81 1011.0
20260502182232 52 199 3.0 11.0 0.00 0.00 0.00 80 1011.1
20260502181731 53 225 2.0 7.0 0.00 0.00 0.00 80 1010.9
20260502181230 53 160 1.0 7.0 0.00 0.00 0.00 79 1010.8
20260502180729 53 145 1.0 7.0 0.00 0.00 0.00 79 1010.9
20260502180229 53 180 1.0 7.0 0.00 0.00 0.00 79 1011.0
20260502170230 53 187 2.0 6.0 0.00 0.00 0.00 80 1011.1
20260502164238 53 200 3.0 7.0 0.00 0.00 0.00 80 1011.2
20260502163734 53 200 3.0 8.0 0.00 0.00 0.00 80 1011.4
20260502163232 53 227 2.0 8.0 0.00 0.00 0.00 79 1011.3
20260502162736 53 273 3.0 7.0 0.00 0.00 0.00 79 1011.2
20260502162229 53 226 4.0 8.0 0.00 0.00 0.00 79 1011.2
20260502161726 53 252 3.0 8.0 0.00 0.00 0.00 79 1011.3
20260502161228 54 159 3.0 6.0 0.00 0.00 0.00 78 1011.3
20260502160726 54 193 2.0 8.0 0.00 0.00 0.00 79 1011.2
20260502160226 54 207 4.0 10.0 0.00 0.00 0.00 79 1011.3
20260502151951 54 80 1.0 3.0 0.00 0.00 0.00 80 1011.4
20260502151218 54 156 1.0 4.0 0.00 0.00 0.00 79 1011.5
20260502150720 54 153 2.0 4.0 0.00 0.00 0.00 80 1011.7
20260502150218 55 259 2.0 4.0 0.00 0.00 0.00 79 1011.8
20260502130706 52 250 2.0 5.0 0.00 0.00 0.00 81 1012.1
20260502130206 52 205 2.0 6.0 0.00 0.00 0.00 81 1012.1
20260502123703 51 232 0.0 3.0 0.00 0.00 0.00 82 1012.1
20260502123205 51 215 1.0 3.0 0.00 0.00 0.00 83 1012.1
20260502122937 51 192 2.0 5.0 0.00 0.00 0.00 83 1012.1
20260502122204 51 194 2.0 5.0 0.00 0.00 0.00 82 1012.1
20260502121703 51 186 2.0 4.0 0.00 0.00 0.00 83 1012.1
20260502121203 51 135 2.0 8.0 0.00 0.00 0.00 83 1012.0
20260502120703 51 280 2.0 8.0 0.00 0.00 0.00 83 1011.9
20260502120204 50 211 2.0 7.0 0.00 0.00 0.00 83 1011.9
20260502115704 50 221 2.0 7.0 0.00 0.00 0.00 83 1011.8
20260502115204 50 263 2.0 7.0 0.00 0.00 0.00 83 1011.8
20260502114703 50 162 2.0 6.0 0.00 0.00 0.00 84 1011.8
20260502114427 50 192 3.0 7.0 0.00 0.00 0.00 84 1011.8
20260502113706 49 222 2.0 7.0 0.00 0.00 0.00 84 1011.8
20260502113428 49 223 1.0 5.0 0.00 0.00 0.00 84 1011.9
20260502112701 49 231 1.0 4.0 0.00 0.00 0.00 84 1011.9
20260502112200 49 219 2.0 5.0 0.00 0.00 0.00 85 1011.9
20260502111702 49 201 2.0 7.0 0.00 0.00 0.00 84 1011.7
20260502111202 49 211 2.0 7.0 0.00 0.00 0.00 85 1011.7
20260502110701 48 194 2.0 5.0 0.00 0.00 0.00 85 1011.6
20260502110202 48 200 2.0 5.0 0.00 0.00 0.00 84 1011.6
20260502105929 48 205 2.0 5.0 0.00 0.00 0.00 85 1011.7
20260502105203 48 249 2.0 5.0 0.00 0.00 0.00 85 1011.6
20260502104703 48 215 1.0 4.0 0.00 0.00 0.00 85 1011.6
20260502104425 48 211 1.0 4.0 0.00 0.00 0.00 85 1011.6
20260502103701 48 215 0.0 4.0 0.00 0.00 0.00 85 1011.6
20260502103201 47 218 0.0 3.0 0.00 0.00 0.00 84 1011.5
20260502102659 47 188 1.0 3.0 0.00 0.00 0.00 84 1011.5
20260502102158 47 226 1.0 4.0 0.00 0.00 0.00 84 1011.5
20260502101655 47 225 1.0 4.0 0.00 0.00 0.00 84 1011.4
20260502101154 47 211 1.0 3.0 0.00 0.00 0.00 84 1011.4
20260502100651 47 204 1.0 5.0 0.00 0.00 0.00 84 1011.2
20260502100419 47 222 1.0 5.0 0.00 0.00 0.00 83 1011.2
20260502091145 46 185 0.0 2.0 0.00 0.00 0.00 82 1011.1
20260502090646 46 185 1.0 3.0 0.00 0.00 0.00 82 1011.0
20260502090144 46 174 1.0 3.0 0.00 0.00 0.00 82 1011.2
20260502070904 47 194 1.0 4.0 0.00 0.00 0.00 80 1011.2
20260502070130 47 205 2.0 5.0 0.00 0.00 0.00 80 1011.2
20260502065858 47 199 2.0 5.0 0.00 0.00 0.00 80 1011.3
20260502065356 47 209 2.0 4.0 0.00 0.00 0.00 79 1011.2
20260502064623 47 206 1.0 3.0 0.00 0.00 0.00 79 1011.1
20260502064126 47 193 1.0 4.0 0.00 0.00 0.00 79 1011.1
20260502063622 48 232 2.0 5.0 0.00 0.00 0.00 78 1011.1
20260502063122 48 264 2.0 5.0 0.00 0.00 0.00 77 1011.3
20260502062622 48 209 2.0 5.0 0.00 0.00 0.00 77 1011.3
20260502062357 49 209 2.0 6.0 0.00 0.00 0.00 76 1011.4
20260502061621 49 214 2.0 6.0 0.00 0.00 0.00 76 1011.5
20260502061357 49 224 3.0 7.0 0.00 0.00 0.00 75 1011.5
20260502060621 49 224 3.0 10.0 0.00 0.00 0.00 75 1011.4
20260502060121 49 205 3.0 10.0 0.00 0.00 0.00 75 1011.4
20260502055621 49 207 3.0 9.0 0.00 0.00 0.00 75 1011.5
20260502055355 49 230 2.0 9.0 0.00 0.00 0.00 75 1011.4
20260502054621 49 226 2.0 9.0 0.00 0.00 0.00 76 1011.5
20260502054356 49 209 3.0 7.0 0.00 0.00 0.00 76 1011.5
20260502053902 49 207 3.0 8.0 0.00 0.00 0.00 76 1011.6
20260502053121 49 188 2.0 8.0 0.00 0.00 0.00 77 1011.7
20260502052848 49 190 2.0 5.0 0.00 0.00 0.00 77 1011.8
20260502052120 48 195 2.0 6.0 0.00 0.00 0.00 77 1011.8
20260502051622 48 200 2.0 6.0 0.00 0.00 0.00 77 1011.8
20260502051121 48 237 2.0 7.0 0.00 0.00 0.00 77 1011.7
20260502050621 48 211 2.0 7.0 0.00 0.00 0.00 77 1011.7
20260502050122 48 206 2.0 4.0 0.00 0.00 0.00 76 1011.7
20260502045622 48 234 2.0 4.0 0.00 0.00 0.00 76 1011.6
20260502045124 48 223 2.0 5.0 0.00 0.00 0.00 76 1011.7
20260502044623 48 242 2.0 5.0 0.00 0.00 0.00 75 1011.7
20260502044124 48 252 2.0 5.0 0.00 0.00 0.00 75 1011.7
20260502043622 48 257 1.0 4.0 0.00 0.00 0.00 75 1011.7
20260502043119 49 194 1.0 4.0 0.00 0.00 0.00 75 1011.7
20260502042615 49 239 1.0 4.0 0.00 0.00 0.00 75 1011.7
20260502042118 49 209 2.0 4.0 0.00 0.00 0.00 74 1011.8
20260502041616 49 207 2.0 4.0 0.00 0.00 0.00 74 1011.8
20260502041118 49 225 2.0 5.0 0.00 0.00 0.00 73 1011.7
20260502040616 49 251 2.0 5.0 0.00 0.00 0.00 73 1011.8
20260502040344 49 205 2.0 5.0 0.00 0.00 0.00 73 1011.8
20260502035621 49 236 2.0 7.0 0.00 0.00 0.00 73 1011.8
20260502034618 50 127 2.0 6.0 0.00 0.00 0.00 72 1011.8
20260502034117 50 234 2.0 6.0 0.00 0.00 0.00 72 1011.9
20260502033614 50 218 2.0 6.0 0.00 0.00 0.00 73 1011.8
20260502033344 50 207 3.0 9.0 0.00 0.00 0.00 72 1011.8
20260502032612 50 221 2.0 9.0 0.00 0.00 0.00 73 1011.8
20260502032110 50 191 2.0 5.0 0.00 0.00 0.00 73 1011.8
20260502031610 50 213 3.0 10.0 0.00 0.00 0.00 73 1011.8
20260502031332 50 195 2.0 10.0 0.00 0.00 0.00 73 1011.8
20260502030608 50 223 2.0 6.0 0.00 0.00 0.00 73 1011.8
20260502030105 50 200 2.0 6.0 0.00 0.00 0.00 73 1011.7
20260502025831 50 197 2.0 5.0 0.00 0.00 0.00 73 1011.8
20260502025111 50 240 2.0 6.0 0.00 0.00 0.00 72 1011.7
20260502024603 50 183 2.0 7.0 0.00 0.00 0.00 72 1011.7
20260502024105 50 211 3.0 7.0 0.00 0.00 0.00 72 1011.6
20260502023605 50 217 2.0 6.0 0.00 0.00 0.00 72 1011.6
20260502023104 51 262 2.0 7.0 0.00 0.00 0.00 72 1011.5
20260502022602 51 206 2.0 8.0 0.00 0.00 0.00 71 1011.5
20260502022101 51 227 3.0 8.0 0.00 0.00 0.00 71 1011.5
20260502021601 51 216 4.0 8.0 0.00 0.00 0.00 71 1011.5
20260502021329 51 207 4.0 8.0 0.00 0.00 0.00 71 1011.6
20260502020824 51 165 3.0 7.0 0.00 0.00 0.00 71 1011.6
20260502020059 51 198 2.0 7.0 0.00 0.00 0.00 70 1011.6
20260502015601 51 217 3.0 10.0 0.00 0.00 0.00 70 1011.6
20260502015100 51 196 3.0 10.0 0.00 0.00 0.00 70 1011.6
20260502014559 51 266 3.0 8.0 0.00 0.00 0.00 70 1011.6
20260502014100 51 205 3.0 7.0 0.00 0.00 0.00 70 1011.5
20260502013559 51 212 2.0 6.0 0.00 0.00 0.00 70 1011.5